{"data":{"norad_id":45665,"epoch":"2026-05-25T03:10:26.426784Z","epoch_age_seconds":60064,"freshness":"FRESH","line1":"1 45665U 20035J   26145.13225031  .00053317  00000+0  50467-3 0  9994","line2":"2 45665  53.0451  40.2076 0006643  64.5040 295.6662 15.66435117330857","mean_motion":15.66435117,"eccentricity":0.0006643,"inclination_deg":53.0451,"raan_deg":40.2076,"arg_perigee_deg":64.504,"mean_anomaly_deg":295.6662,"bstar":0.00050467,"rev_number":33085,"period_min":91.928480431277,"perigee_km":364.63233613756,"apogee_km":373.5967345274,"semimajor_km":6747.2515353325,"source":"CELESTRAK","updated_at":"2026-05-25T13:38:16.426721Z"}}